Stündliche Wetter Bolshoe Afanasovo

Heute, 21 Januar, Donnerstag

Zeit Temperatur Niederschläge Wind Luftdruck Luftfeuchtigkeit
00:00 -20°C° 0 mm 4 m/S 753 mmHg 94%
01:00 -20°C° 0 mm 4 m/S 753 mmHg 95%
02:00 -20°C° 0 mm 4 m/S 753 mmHg 95%
03:00 -20°C° 0 mm 4 m/S 753 mmHg 95%
04:00 -20°C° 0.1 mm 4 m/S 753 mmHg 95%
05:00 -22°C° 0.1 mm 4 m/S 753 mmHg 95%
06:00 -22°C° 0.1 mm 4 m/S 753 mmHg 95%
07:00 -20°C° 0.1 mm 4 m/S 753 mmHg 95%
08:00 -20°C° 0.1 mm 4 m/S 753 mmHg 95%
09:00 -20°C° 0.1 mm 4 m/S 753 mmHg 95%
10:00 -19°C° 0.1 mm 4 m/S 753 mmHg 94%
11:00 -19°C° 0.1 mm 5 m/S 753 mmHg 94%
12:00 -18°C° 0.1 mm 5 m/S 753 mmHg 93%
13:00 -18°C° 0.1 mm 5 m/S 753 mmHg 93%
14:00 -17°C° 0.1 mm 5 m/S 753 mmHg 93%
15:00 -17°C° 0.1 mm 5 m/S 753 mmHg 93%
16:00 -17°C° 0.1 mm 5 m/S 753 mmHg 94%
17:00 -15°C° 0.1 mm 5 m/S 753 mmHg 94%
18:00 -15°C° 0.1 mm 4 m/S 753 mmHg 94%
19:00 -15°C° 0.1 mm 4 m/S 753 mmHg 94%
20:00 -15°C° 0.1 mm 4 m/S 753 mmHg 94%
21:00 -14°C° 0.1 mm 4 m/S 753 mmHg 94%
22:00 -15°C° 0.1 mm 4 m/S 753 mmHg 94%
23:00 -16°C° 0.1 mm 4 m/S 753 mmHg 94%

Morgen, 22 Januar, Freitag

Zeit Temperatur Niederschläge Wind Luftdruck Luftfeuchtigkeit
00:00 -16°C° 0.1 mm 4 m/S 753 mmHg 94%
01:00 -16°C° 0 mm 3 m/S 753 mmHg 94%
02:00 -17°C° 0 mm 3 m/S 753 mmHg 95%
03:00 -18°C° 0 mm 3 m/S 753 mmHg 96%
04:00 -18°C° 0 mm 2 m/S 753 mmHg 97%
05:00 -19°C° 0 mm 2 m/S 753 mmHg 97%
06:00 -20°C° 0 mm 2 m/S 753 mmHg 97%
07:00 -20°C° 0 mm 2 m/S 754 mmHg 97%
08:00 -18°C° 0 mm 1 m/S 754 mmHg 97%
09:00 -18°C° 0 mm 1 m/S 754 mmHg 97%
10:00 -17°C° 0 mm 1 m/S 755 mmHg 96%
11:00 -17°C° 0 mm 1 m/S 755 mmHg 95%
12:00 -16°C° 0 mm 1 m/S 755 mmHg 94%
13:00 -16°C° 0 mm 1 m/S 756 mmHg 95%
14:00 -17°C° 0 mm 1 m/S 756 mmHg 95%
15:00 -18°C° 0 mm 1 m/S 757 mmHg 96%
16:00 -19°C° 0 mm 1 m/S 757 mmHg 97%
17:00 -20°C° 0 mm 1 m/S 758 mmHg 98%
18:00 -22°C° 0 mm 1 m/S 758 mmHg 98%
19:00 -22°C° 0 mm 1 m/S 759 mmHg 98%
20:00 -23°C° 0 mm 1 m/S 759 mmHg 97%
21:00 -27°C° 0 mm 2 m/S 760 mmHg 96%
22:00 -27°C° 0 mm 2 m/S 760 mmHg 96%
23:00 -27°C° 0 mm 2 m/S 761 mmHg 95%

übermorgen, 23 Januar, Samstag

Zeit Temperatur Niederschläge Wind Luftdruck Luftfeuchtigkeit
00:00 -27°C° 0 mm 2 m/S 761 mmHg 95%
01:00 -27°C° 0 mm 2 m/S 761 mmHg 94%
02:00 -26°C° 0 mm 2 m/S 761 mmHg 94%
03:00 -26°C° 0 mm 2 m/S 761 mmHg 94%
04:00 -25°C° 0 mm 2 m/S 761 mmHg 94%
05:00 -24°C° 0 mm 2 m/S 761 mmHg 93%
06:00 -24°C° 0 mm 3 m/S 761 mmHg 93%
07:00 -23°C° 0 mm 3 m/S 761 mmHg 93%
08:00 -22°C° 0 mm 3 m/S 761 mmHg 93%
09:00 -20°C° 0 mm 4 m/S 761 mmHg 93%
10:00 -19°C° 0.2 mm 4 m/S 760 mmHg 93%
11:00 -18°C° 0.2 mm 5 m/S 760 mmHg 93%
12:00 -17°C° 0.2 mm 5 m/S 759 mmHg 93%
13:00 -17°C° 0.3 mm 5 m/S 759 mmHg 94%
14:00 -15°C° 0.3 mm 5 m/S 758 mmHg 94%
15:00 -14°C° 0.3 mm 5 m/S 758 mmHg 94%
16:00 -14°C° 0.3 mm 5 m/S 758 mmHg 94%
17:00 -14°C° 0.3 mm 5 m/S 757 mmHg 94%
18:00 -13°C° 0.3 mm 5 m/S 757 mmHg 94%
19:00 -12°C° 0.2 mm 5 m/S 757 mmHg 94%
20:00 -11°C° 0.2 mm 5 m/S 757 mmHg 94%
21:00 -10°C° 0.2 mm 6 m/S 756 mmHg 94%
22:00 -8°C° 0.3 mm 5 m/S 756 mmHg 95%
23:00 -7°C° 0.3 mm 5 m/S 756 mmHg 95%

24 Januar, Sonntag

Zeit Temperatur Niederschläge Wind Luftdruck Luftfeuchtigkeit
00:00 -6°C° 0.3 mm 5 m/S 756 mmHg 96%
01:00 -4°C° 0.3 mm 5 m/S 756 mmHg 97%
02:00 -2°C° 0.3 mm 5 m/S 756 mmHg 98%
03:00 -1°C° 0.3 mm 5 m/S 756 mmHg 98%
04:00 -1°C° 0.1 mm 5 m/S 756 mmHg 98%
05:00 -1°C° 0.1 mm 5 m/S 756 mmHg 97%
06:00 -1°C° 0.1 mm 5 m/S 756 mmHg 97%
07:00 -1°C° 0 mm 5 m/S 756 mmHg 97%
08:00 -1°C° 0 mm 5 m/S 756 mmHg 98%
09:00 -2°C° 0 mm 6 m/S 756 mmHg 98%
10:00 -1°C° 0 mm 5 m/S 757 mmHg 99%
11:00 -1°C° 0 mm 5 m/S 757 mmHg 99%
12:00 -1°C° 0 mm 5 m/S 757 mmHg 99%
13:00 -1°C° 0 mm 4 m/S 757 mmHg 99%
14:00 -1°C° 0 mm 4 m/S 757 mmHg 99%
15:00 0°C° 0 mm 3 m/S 757 mmHg 99%
16:00 0°C° 0.1 mm 3 m/S 758 mmHg 99%
17:00 0°C° 0.1 mm 3 m/S 758 mmHg 99%
18:00 -1°C° 0.1 mm 4 m/S 759 mmHg 99%
19:00 -1°C° 0 mm 4 m/S 759 mmHg 98%
20:00 -1°C° 0 mm 4 m/S 759 mmHg 98%
21:00 -1°C° 0 mm 4 m/S 759 mmHg 98%
22:00 -1°C° 0 mm 4 m/S 760 mmHg 97%
23:00 -2°C° 0 mm 5 m/S 760 mmHg 95%

25 Januar, Montag

Zeit Temperatur Niederschläge Wind Luftdruck Luftfeuchtigkeit
00:00 -2°C° 0 mm 5 m/S 760 mmHg 94%
01:00 -4°C° 0 mm 5 m/S 760 mmHg 93%
02:00 -5°C° 0 mm 5 m/S 760 mmHg 93%
03:00 -5°C° 0 mm 5 m/S 761 mmHg 92%
04:00 -5°C° 0 mm 5 m/S 761 mmHg 93%
05:00 -5°C° 0 mm 5 m/S 761 mmHg 93%
06:00 -6°C° 0 mm 5 m/S 761 mmHg 94%
07:00 -5°C° 0.1 mm 5 m/S 761 mmHg 95%
08:00 -5°C° 0.1 mm 5 m/S 761 mmHg 95%
09:00 -5°C° 0.1 mm 5 m/S 762 mmHg 96%
10:00 -5°C° 0 mm 5 m/S 762 mmHg 95%
11:00 -5°C° 0 mm 5 m/S 762 mmHg 95%
12:00 -5°C° 0 mm 5 m/S 762 mmHg 94%
13:00 -5°C° 0 mm 5 m/S 762 mmHg 94%
14:00 -5°C° 0 mm 5 m/S 762 mmHg 94%
15:00 -5°C° 0 mm 5 m/S 762 mmHg 94%
16:00 -5°C° 0 mm 5 m/S 762 mmHg 94%
17:00 -5°C° 0 mm 5 m/S 762 mmHg 94%
18:00 -5°C° 0 mm 5 m/S 762 mmHg 93%
19:00 -5°C° 0 mm 5 m/S 762 mmHg 93%
20:00 -4°C° 0 mm 4 m/S 762 mmHg 93%
21:00 -4°C° 0 mm 4 m/S 762 mmHg 92%
22:00 -4°C° 0 mm 4 m/S 762 mmHg 92%
23:00 -5°C° 0 mm 5 m/S 761 mmHg 92%

26 Januar, Dienstag

Zeit Temperatur Niederschläge Wind Luftdruck Luftfeuchtigkeit
00:00 -5°C° 0 mm 5 m/S 761 mmHg 92%
01:00 -6°C° 0 mm 5 m/S 761 mmHg 92%
02:00 -6°C° 0 mm 5 m/S 761 mmHg 92%
03:00 -7°C° 0 mm 5 m/S 761 mmHg 93%
04:00 -7°C° 0 mm 5 m/S 761 mmHg 93%
05:00 -7°C° 0 mm 5 m/S 761 mmHg 93%
06:00 -7°C° 0 mm 5 m/S 760 mmHg 93%
07:00 -7°C° 0 mm 4 m/S 760 mmHg 93%
08:00 -5°C° 0 mm 4 m/S 760 mmHg 93%
09:00 -5°C° 0 mm 4 m/S 760 mmHg 93%
10:00 -6°C° 0.2 mm 5 m/S 760 mmHg 93%
11:00 -5°C° 0.2 mm 5 m/S 760 mmHg 93%
12:00 -5°C° 0.2 mm 5 m/S 760 mmHg 93%
13:00 -5°C° 0.1 mm 5 m/S 760 mmHg 94%
14:00 -6°C° 0.1 mm 5 m/S 760 mmHg 94%
15:00 -6°C° 0.1 mm 5 m/S 760 mmHg 94%
16:00 -5°C° 0 mm 4 m/S 760 mmHg 94%
17:00 -7°C° 0 mm 4 m/S 760 mmHg 94%
18:00 -8°C° 0 mm 4 m/S 760 mmHg 94%
19:00 -7°C° 0 mm 4 m/S 760 mmHg 94%
20:00 -7°C° 0 mm 4 m/S 760 mmHg 94%
21:00 -7°C° 0 mm 4 m/S 760 mmHg 94%
22:00 -7°C° 0 mm 4 m/S 760 mmHg 95%
23:00 -7°C° 0 mm 4 m/S 760 mmHg 95%
Mehr zeigen

Wir brauchen deine Erlaubnis

Meteoprog und unser Service Anbieter werden persönliche Daten aufbewahren, so wie Cookies, Geräte Bezeichnung oder ähnliche Technologien von deinem Gerät und Prozess, so wie Persönliche Daten Inhalte und Werbungen, genauso wie social Media und den Verkehr zu analysieren.

  • Aufbewahrung und/oder Zugang zu deiner Geräte Informationen.

    Cookies, Geräte Bezeichnung oder andere Informationen, können aufbewahrt oder Zugang zu deinem Gerät erhalten, für den Grund, der oben angegeben wird.

  • Personalisierte Werbung und Inhalte, Messungen, Einblick in das Publikum und Produkt Entwicklung.

    Werbungen und Inhalte können personalisiert werden, basierend auf ein Profil. Mehr Daten können besser personalisierte Werbungen und Inhalte hinzufügen. Werbung und Inhalte können gezeigt und gemessen werden. Einblicke über das Publikum, welche die Werbung gesehen haben und den Inhalt, können abgeleitet werden. So wie Daten können genutzt werden, um es zu verbessern oder die Benutzer Erfahrung zu verbessern das System und die Software.

Wenn du “Ich stimme zu” klickst, erlaubst du uns, die Cookies zu benutzen die Geräte Bezeichnung, den Web oder ähnliche Technologien zu benutzen. Deine Settings, können in deinem Gerät bei deinem Browser geändert werden.

Für den bestimmten Zweck, berechtigten Interessen beruhen darauf, mehr als auf den Inhalt. Du kannst mehr darüber in unseren Privaten und Cookie Politik lesen.